Location: Mauries
(43.6188°N, 0.3322°W)
Time: 20:06:09
(UTC+00:00)

YAOGAN 1 - Pass Details

Date: 14 January 2026
Orbit: 605 x 607 km, 97.8° (Epoch: 10 February)

Event Time Altitude Azimuth Distance (km) Brightness Sun altitude
Rises 06:56:02 0° 19° (NNE) 2,871 5.9 -6.7°
Reaches altitude 10° 06:58:19 10° 26° (NNE) 1,962 5.2 -6.3°
Maximum altitude 07:02:23 43° 98° (E) 855 4.0 -5.7°
Drops below altitude 10° 07:06:25 10° 171° (S) 1,946 5.6 -5.0°
Sets 07:08:40 0° 178° (S) 2,844 6.4 -4.6°
